Theta_e
335 328 322 311 299 297 294 298 297 299 303 310 314 313 311 312 309 302 329 333 334 331 333 332 335 333 332 332 331 331 330 331 331 333 334 333 333 335 337 336 336 334 333 334 338 335 336 337 337
331 328 313 305 296 294 295 299 297 301 310 314 315 313 311 309 317 324 327 332 332 330 330 330 334 333 332 331 331 330 330 331 332 333 332 334 334 333 335 333 334 333 333 335 335 335 335 336 336
329 327 307 300 293 293 294 299 302 307 311 313 313 316 313 311 320 322 329 331 330 328 329 330 333 332 331 330 330 330 329 329 328 330 331 332 333 333 334 333 332 331 333 334 332 333 335 335 335
322 317 306 295 292 296 300 304 304 308 312 316 315 311 317 322 321 326 331 330 328 327 328 332 333 331 331 330 330 329 328 328 328 328 328 330 330 333 332 331 330 331 332 333 329 331 333 333 333
319 313 302 293 292 299 305 308 309 310 310 312 314 309 313 323 328 329 329 329 327 327 327 328 332 330 330 329 328 328 327 327 327 326 326 327 328 329 332 329 329 331 330 329 329 330 330 330 330
311 311 300 293 292 304 307 310 311 310 313 313 313 312 314 326 326 327 328 327 327 325 324 324 325 328 328 327 326 326 325 324 324 323 323 323 325 327 328 329 328 330 330 328 328 328 327 327 327
309 307 300 299 295 304 308 310 310 310 311 311 317 310 317 322 326 329 328 327 326 324 320 319 321 323 325 326 324 322 322 321 320 321 321 321 322 322 324 327 327 329 327 326 325 326 325 324 324
309 308 301 299 296 299 309 308 311 311 311 318 318 310 311 321 327 329 327 325 323 321 318 316 316 316 317 318 321 321 321 320 319 318 318 319 319 319 320 322 327 328 327 325 324 323 321 320 321
312 303 299 299 298 303 309 308 312 316 314 317 318 317 319 324 327 325 323 322 320 318 317 315 315 314 314 315 315 317 318 319 318 317 317 315 311 312 313 319 325 326 325 325 322 320 319 317 314
309 304 300 299 298 301 308 311 312 312 312 313 316 320 322 323 324 321 320 316 315 314 315 316 315 314 313 317 313 312 313 312 312 312 311 312 311 310 313 313 321 322 323 322 320 316 314 309 304
308 305 304 301 302 304 308 309 311 311 309 313 313 316 319 318 320 321 320 317 316 314 314 316 316 314 312 314 312 311 311 310 311 311 311 311 311 310 310 310 312 316 316 318 316 307 303 302 301
302 306 302 303 304 306 309 310 306 307 307 313 319 321 318 317 317 321 320 318 316 314 313 314 316 314 313 313 312 311 311 310 310 310 311 309 309 308 308 309 310 314 319 316 311 307 302 300 299
300 301 303 306 305 308 311 306 306 305 313 318 320 320 317 317 317 320 320 320 318 314 313 313 316 315 314 312 312 311 310 310 310 311 312 311 309 308 309 309 309 310 316 316 309 306 302 298 297
302 302 303 305 303 304 306 303 306 305 314 316 318 315 316 318 319 317 319 319 320 317 313 313 315 316 315 313 312 311 310 311 311 311 311 312 310 309 308 308 309 309 315 313 310 306 302 298 296
303 298 301 303 303 300 302 301 299 307 315 313 313 314 316 320 320 318 320 321 321 318 315 312 314 316 315 314 313 312 311 312 311 311 311 311 311 309 308 308 308 309 311 314 312 306 303 299 298
300 300 294 299 302 302 300 294 301 308 311 309 311 313 314 316 318 318 321 322 322 320 316 316 317 316 315 317 316 315 313 311 312 313 311 311 313 310 308 307 307 308 310 310 303 300 299 297 295
299 293 296 294 302 301 298 293 300 305 308 307 308 311 313 314 316 318 321 323 323 321 318 315 315 316 316 315 313 314 313 312 314 314 313 313 313 311 308 306 306 308 309 307 305 300 299 296 295
293 295 296 293 299 302 298 294 298 299 300 299 306 308 309 310 310 317 321 322 323 320 317 316 315 314 315 314 313 312 310 313 313 313 312 312 311 310 307 306 305 306 306 306 306 303 300 297 295
301 298 296 298 302 300 295 294 296 296 296 296 297 299 300 300 302 305 312 319 320 321 319 317 314 315 314 311 310 310 310 311 311 311 311 311 310 308 307 305 307 307 305 305 305 305 302 297 294
301 298 294 297 301 300 295 293 297 296 295 295 296 296 298 299 301 303 304 305 306 309 310 318 317 315 314 313 313 313 311 310 310 310 310 310 307 306 306 305 305 307 306 306 306 303 299 297 293
299 297 294 295 296 297 295 292 293 294 295 295 295 296 298 299 300 301 302 302 303 303 304 307 309 312 315 315 315 314 313 310 309 309 309 309 309 308 307 307 306 306 306 306 306 304 300 300 294
294 299 298 294 294 288 295 287 290 291 291 293 295 296 297 299 299 300 300 300 301 302 303 305 306 307 308 310 311 313 311 310 311 311 310 310 310 308 307 306 306 305 306 305 305 306 304 301 300
293 300 297 297 291 290 289 286 288 290 287 291 293 295 296 297 299 299 300 301 302 301 300 301 303 304 305 305 306 306 306 308 308 307 306 306 306 305 305 304 304 304 304 304 304 304 304 304 302
298 294 292 292 289 283 288 287 285 285 288 291 294 295 297 298 298 299 300 300 300 299 299 299 300 301 302 303 303 303 302 301 301 301 301 302 303 303 302 302 301 301 302 303 303 303 303 303 303
294 289 281 280 280 281 287 285 286 290 290 294 294 294 296 295 294 294 295 296 295 296 297 297 297 297 298 298 298 299 299 299 298 298 299 299 299 300 301 301 300 299 300 301 301 302 302 302 302
290 289 283 276 277 278 283 281 285 291 293 296 295 294 293 293 293 294 294 293 293 294 294 294 294 293 294 294 294 295 296 296 296 297 296 297 297 298 300 300 300 299 299 300 300 300 301 301 301
288 285 290 282 280 279 280 282 288 289 290 293 293 292 291 292 293 293 293 293 292 292 292 292 291 291 292 292 292 292 292 292 292 293 294 294 295 297 297 297 297 298 299 299 299 299 298 299 299
291 292 283 283 277 276 278 279 283 286 288 291 291 290 290 291 292 292 293 293 291 289 288 287 288 288 288 289 289 290 290 290 290 290 290 291 292 293 293 294 294 295 296 297 297 298 298 296 297
287 286 287 286 283 279 276 279 288 289 291 291 292 292 291 291 292 292 292 290 287 287 287 286 286 286 286 287 287 287 287 288 288 288 288 289 290 290 291 292 292 292 293 294 294 295 296 296 296
287 287 287 280 278 280 279 279 287 291 292 293 292 292 291 291 291 291 291 289 286 286 286 285 285 284 285 285 285 286 286 286 285 286 287 288 288 289 289 289 290 290 290 291 291 291 293 293 294
Wind_Speed
9 6 2 3 3 4 3 2 1 4 4 6 4 10 9 4 3 3 6 14 15 10 8 7 11 11 11 10 10 10 10 10 10 9 12 12 11 13 14 15 12 15 12 10 15 14 12 13 15
5 4 4 2 3 2 4 3 4 1 8 8 10 5 7 3 4 10 8 12 14 10 7 6 9 11 11 10 11 11 10 11 10 12 12 13 13 12 12 13 14 14 11 13 15 14 14 15 15
5 4 3 4 3 4 3 1 5 4 4 3 6 6 5 4 6 5 10 13 13 9 8 7 9 11 11 10 10 11 10 10 10 10 10 12 13 12 12 13 11 11 11 14 14 13 14 15 16
2 2 3 4 4 4 4 5 5 3 4 8 6 8 4 2 6 8 14 15 13 9 8 9 10 10 11 10 10 10 10 11 11 10 9 10 11 11 10 12 11 11 12 14 12 13 15 16 15
1 2 2 2 2 1 3 4 1 4 4 5 2 3 3 4 16 17 15 14 16 10 7 6 9 10 10 10 10 10 11 10 10 10 9 8 9 10 11 11 9 10 12 12 12 13 13 14 14
3 2 4 2 2 2 2 4 5 4 4 5 7 6 3 11 14 10 12 12 12 12 7 6 7 8 9 9 10 10 10 9 9 9 9 9 9 9 10 8 8 10 13 12 10 11 11 11 11
3 3 2 1 5 3 5 5 6 6 6 3 8 5 6 8 11 11 12 13 11 9 8 5 5 6 7 8 9 9 8 8 7 7 7 8 8 8 7 10 7 8 11 10 8 9 10 10 11
2 4 3 2 5 4 5 3 3 3 3 6 5 7 7 8 12 13 13 11 9 7 6 6 5 4 5 4 7 6 6 6 6 6 5 5 6 7 8 9 8 8 9 9 7 8 9 10 11
3 2 3 1 4 3 4 4 2 4 6 3 3 5 7 16 16 14 12 8 7 5 6 6 5 4 4 4 3 4 5 4 4 4 6 4 3 3 5 5 7 6 7 9 6 5 6 7 9
3 2 3 3 1 4 1 5 6 4 3 4 3 5 13 16 16 15 12 8 5 6 6 6 6 6 5 3 3 2 2 2 2 2 3 2 2 1 1 3 2 3 4 6 4 6 7 7 4
2 5 4 6 5 6 2 4 2 9 2 5 7 9 8 9 11 13 10 9 8 6 4 6 6 6 6 4 3 2 1 1 1 1 1 2 2 2 2 1 2 2 2 1 2 3 2 3 2
7 5 3 4 8 4 3 5 4 2 0 2 10 12 7 10 8 11 10 8 8 7 7 7 7 6 6 4 3 3 3 2 1 1 1 1 0 2 2 1 3 3 2 2 2 1 2 3 3
4 4 3 6 9 8 3 2 5 3 4 9 11 7 8 7 7 5 9 7 7 7 7 7 6 5 5 5 3 3 3 3 3 3 3 2 1 1 1 3 3 3 2 2 2 2 2 3 2
5 8 3 5 9 6 1 1 1 2 5 9 9 7 6 8 8 4 5 6 8 7 8 7 7 6 6 5 6 4 3 4 4 3 3 2 1 1 2 1 2 3 2 3 3 3 2 2 2
3 7 6 6 7 5 4 2 2 4 6 8 8 7 6 9 7 7 5 9 11 8 8 8 7 6 6 6 5 3 3 3 3 3 3 2 2 2 3 3 3 3 2 1 3 2 2 2 2
5 4 5 2 4 5 2 3 1 3 8 7 7 7 7 7 7 7 7 5 7 6 9 7 5 7 6 5 4 3 4 3 3 3 3 4 4 2 3 3 3 3 2 2 2 3 2 3 3
3 5 7 4 5 6 4 1 1 2 5 7 7 7 7 7 7 7 6 6 8 9 8 6 6 7 6 3 3 2 2 2 2 2 2 4 3 3 2 3 4 4 3 1 2 2 2 2 3
6 7 6 8 10 6 1 3 3 1 3 2 6 6 4 2 3 6 5 6 6 6 6 6 5 6 5 3 2 1 1 2 2 2 3 3 3 4 3 3 4 4 3 3 1 3 3 3 3
14 12 11 3 4 3 1 3 4 2 6 5 5 7 8 5 3 4 4 6 4 4 6 6 6 5 4 2 1 2 3 1 1 2 4 4 4 5 4 4 4 3 3 5 4 3 5 4 3
8 11 5 4 2 2 3 4 2 2 3 3 6 5 5 4 4 5 6 7 7 5 4 1 3 4 4 2 2 1 1 1 2 2 4 5 5 6 5 5 5 4 3 5 5 4 2 3 4
2 11 8 8 4 6 6 2 4 2 3 5 4 2 2 6 6 4 6 6 6 6 5 5 5 5 2 4 3 2 1 1 1 3 3 4 5 5 5 5 5 5 3 5 5 4 6 6 3
5 4 12 17 12 5 1 5 6 4 3 2 3 3 4 5 5 5 6 6 5 4 4 5 5 5 4 4 3 1 2 2 2 2 2 4 5 6 5 6 6 6 5 7 7 5 7 6 8
1 6 9 9 6 5 4 3 2 6 5 4 4 5 5 5 6 6 7 6 5 6 6 5 6 6 5 5 4 2 2 2 3 3 6 5 4 5 6 6 6 6 5 7 8 8 7 7 9
11 17 13 7 4 1 4 2 5 8 8 5 5 6 6 5 4 5 5 6 5 4 5 5 6 5 6 7 7 6 5 5 4 4 4 4 4 4 5 6 6 6 7 8 8 8 9 10 10
5 4 3 3 0 3 4 3 8 14 8 13 14 9 7 6 6 6 6 5 4 4 3 3 5 5 6 7 7 6 6 5 5 5 4 6 4 3 5 5 6 5 8 8 8 9 9 10 10
4 2 4 6 5 3 3 7 6 6 12 12 9 9 7 7 6 7 6 5 4 4 4 4 4 4 5 5 5 4 4 2 3 4 4 4 4 5 6 6 6 7 8 9 9 7 8 10 10
5 4 1 3 2 3 5 5 3 5 8 13 13 8 8 8 7 8 6 5 5 4 3 3 3 3 3 3 3 4 5 6 5 6 5 4 6 5 7 7 7 7 8 9 9 8 10 11 10
3 3 3 1 4 4 4 4 6 12 17 17 16 12 8 7 7 6 6 6 4 3 2 1 3 4 4 5 4 4 5 5 6 5 7 7 6 6 7 7 7 8 9 9 9 10 11 11 10
2 1 1 0 4 5 4 8 5 22 21 22 18 13 11 10 9 8 7 6 5 3 2 1 3 4 5 4 4 5 6 6 6 5 6 6 7 7 8 9 9 9 10 9 10 11 13 14 14
3 5 7 4 5 2 1 7 1 10 18 18 16 12 9 9 9 8 7 7 6 4 3 3 2 2 4 5 5 7 6 6 7 7 7 7 8 8 8 9 10 10 10 10 11 13 12 14 15
Wind_Direction
304 318 178 50 80 75 270 255 122 107 49 340 66 95 110 54 39 147 109 128 127 120 111 103 105 102 95 88 82 79 75 72 67 59 52 59 51 43 59 56 71 65 56 59 64 69 56 53 55
314 305 45 104 110 120 260 265 126 359 136 146 83 86 51 70 74 116 107 131 122 114 102 96 103 103 97 94 90 87 84 76 63 54 53 52 62 49 57 60 55 61 59 53 61 54 51 51 58
292 226 101 106 126 176 217 117 149 124 163 104 97 61 103 89 122 122 131 134 107 106 104 102 106 105 104 102 99 94 82 72 65 64 56 55 49 52 63 70 67 65 59 70 61 57 58 55 60
276 8 30 97 210 237 186 169 159 148 72 61 103 69 53 282 126 136 135 125 109 114 108 110 111 111 109 107 101 93 84 77 72 64 66 54 51 43 71 74 65 75 70 70 69 62 56 58 59
122 81 94 99 247 333 74 154 205 100 79 26 113 112 63 29 118 129 134 129 119 110 102 97 107 109 106 99 93 87 81 77 74 70 66 61 54 43 52 66 65 84 77 68 68 66 60 59 61
27 114 89 196 220 94 111 160 114 69 115 157 84 102 78 131 121 136 135 116 119 125 116 105 91 93 101 99 92 87 82 76 74 73 69 61 52 45 41 47 74 86 80 72 73 71 64 68 67
123 87 200 194 186 143 179 171 131 137 130 115 136 88 132 156 133 137 117 113 119 122 122 112 108 101 91 94 95 93 86 82 82 80 66 55 43 39 25 22 66 84 84 81 84 85 72 66 64
113 86 221 342 174 194 177 108 105 96 67 121 140 150 177 160 130 121 115 120 126 128 127 129 133 127 118 113 114 107 97 87 73 51 38 38 45 38 20 20 23 98 105 97 90 75 59 51 48
70 95 261 69 25 288 180 123 41 37 98 69 16 151 151 132 128 119 117 119 125 131 141 150 154 148 140 135 136 117 109 85 61 38 56 57 45 43 23 16 24 87 93 103 99 51 32 31 33
138 202 278 146 334 316 120 111 136 105 117 44 40 20 121 137 134 136 147 148 148 155 164 167 172 172 169 156 156 161 154 124 100 74 48 37 39 26 70 352 14 61 64 92 89 61 66 53 32
161 134 284 324 3 306 202 106 106 125 236 187 174 155 125 132 143 147 157 166 168 167 167 171 179 183 176 156 169 178 164 148 72 58 49 18 27 12 20 303 309 227 190 138 118 102 73 76 68
127 74 48 13 316 291 136 113 56 36 15 278 161 149 125 138 145 151 158 171 159 168 189 193 192 176 173 156 176 176 165 183 206 221 134 113 9 353 343 306 292 264 190 188 141 128 127 79 43
88 103 38 321 309 343 71 79 159 70 22 91 111 116 128 131 157 169 171 176 160 175 192 202 196 188 172 168 180 182 188 192 207 212 223 162 176 225 303 310 319 305 286 169 172 171 138 115 79
119 90 55 346 325 340 265 169 188 131 111 96 114 140 157 166 180 174 143 191 187 178 193 196 191 193 177 180 186 195 192 204 201 212 226 229 222 245 261 270 309 308 287 158 179 200 198 202 172
126 93 49 357 327 301 321 271 40 133 124 125 141 159 179 193 190 207 216 198 184 193 184 197 189 182 191 191 194 195 204 205 233 243 254 245 269 293 322 306 311 297 303 216 203 207 181 208 203
118 74 128 211 354 290 328 247 108 144 142 147 159 174 183 198 207 206 212 209 182 160 184 187 177 175 194 195 193 194 202 212 234 235 231 236 242 272 318 303 291 286 241 256 158 175 203 239 231
199 147 175 159 179 291 254 255 158 153 151 172 182 181 191 201 226 231 201 174 175 171 167 160 160 164 174 155 155 168 196 228 276 274 254 271 264 268 260 284 293 303 278 246 221 224 200 218 261
153 123 150 153 175 205 36 47 340 276 136 163 206 210 205 120 276 262 219 178 150 152 156 161 164 172 163 156 130 90 273 262 275 302 317 327 291 274 265 276 291 312 308 297 272 235 226 233 236
147 135 130 126 159 139 86 78 343 43 90 85 64 101 113 96 335 56 79 106 126 143 160 172 182 196 148 135 158 236 234 227 286 297 283 281 271 271 274 275 276 278 270 258 232 223 219 223 210
141 139 111 75 346 107 135 87 12 10 74 120 122 111 126 113 70 66 66 62 62 71 19 310 250 192 183 165 175 167 147 205 213 219 248 257 263 258 249 248 257 247 256 265 249 200 235 254 186
159 173 168 137 133 34 111 334 253 2 72 80 59 108 120 148 128 68 61 56 59 50 38 59 46 58 72 211 180 183 121 91 228 247 261 262 246 252 245 253 257 268 262 272 263 217 216 259 219
151 294 159 146 158 173 235 216 230 190 196 133 136 154 150 127 112 118 107 80 80 64 55 56 61 67 57 41 67 203 221 239 241 255 260 281 269 255 238 234 238 243 243 253 259 238 232 230 256
104 134 132 135 111 125 201 204 234 159 211 194 194 184 163 145 126 102 90 81 57 53 51 47 57 48 34 56 76 73 359 354 342 332 330 320 292 263 264 243 250 254 254 255 255 258 239 232 249
121 91 55 62 49 246 174 187 229 195 183 174 201 194 181 164 124 97 85 80 66 49 51 52 59 40 30 33 31 32 12 346 343 328 325 316 308 302 279 266 255 257 257 258 257 256 254 252 250
92 80 69 41 15 234 160 165 255 207 180 170 179 190 186 164 140 131 118 106 89 77 65 71 60 47 34 38 34 25 16 1 341 333 322 325 321 310 297 283 267 256 254 258 259 256 252 254 255
144 45 141 151 187 183 157 222 246 220 163 171 171 175 170 169 156 149 150 143 135 110 79 69 66 56 40 39 30 19 11 343 325 325 328 314 303 300 301 301 286 270 262 263 260 258 257 256 253
177 183 306 102 40 115 200 276 298 130 151 171 180 173 186 182 166 167 162 158 148 138 129 108 57 31 24 12 10 2 354 351 333 325 315 298 297 294 297 297 294 290 282 273 272 269 264 259 257
60 106 147 267 148 217 234 251 234 184 182 182 190 187 184 179 174 170 173 167 162 151 133 70 26 13 345 348 353 337 325 324 321 318 313 309 301 305 308 303 294 292 288 283 276 273 269 261 260
110 159 193 130 197 184 190 250 225 190 184 189 191 181 181 179 183 182 181 175 169 164 168 324 4 356 339 335 328 330 322 321 318 313 307 306 306 306 306 304 298 294 291 287 284 276 276 271 271
252 204 187 179 202 233 217 273 99 203 193 185 182 177 187 184 188 182 181 178 184 198 227 249 306 328 319 318 332 321 313 316 321 318 308 303 297 298 289 292 291 291 288 284 280 284 279 277 274